Location: Ayer Observatory
(42.2600°N, 71.0700°W)
Time: 17:09:39
(UTC-04:00)

UWE-3 - Visible Passes

Search period start: 22 October 2019 00:00
Search period end: 01 November 2019 00:00
Orbit: 585 x 683 km, 97.6° (Epoch: 21 October)

Date Brightness Start Highest point End Pass type
(mag) Time Alt. Az. Time Alt. Az. Time Alt. Az.
22 Oct ? 05:30:41 10° NE 05:33:40 17° E 05:36:41 10° SE visible
23 Oct ? 05:51:35 10° NE 05:55:30 28° E 05:59:28 10° SSE visible
23 Oct ? 18:25:09 10° SSW 18:28:51 31° W 18:32:38 10° NNW visible
24 Oct ? 06:12:52 10° NNE 06:17:16 47° E 06:21:44 10° S visible
24 Oct ? 18:47:44 10° SW 18:50:40 18° W 18:53:39 10° NW visible
25 Oct ? 06:34:24 10° NNE 06:38:58 81° ESE 06:43:36 10° S visible
25 Oct ? 19:11:41 10° W 19:12:33 11° W 19:13:26 10° WNW visible
26 Oct ? 05:21:26 10° ENE 05:23:50 14° E 05:26:15 10° ESE visible
27 Oct ? 05:42:01 10° NE 05:45:42 23° E 05:49:24 10° SSE visible
27 Oct ? 18:15:04 10° SSW 18:19:00 40° W 18:23:02 10° NNW visible
28 Oct ? 06:03:11 10° NNE 06:07:29 38° E 06:11:49 10° SSE visible
28 Oct ? 18:37:25 10° SSW 18:40:47 23° W 18:44:14 10° NW visible
29 Oct ? 06:24:38 10° NNE 06:29:13 65° E 06:33:51 10° S visible
29 Oct ? 19:00:28 10° WSW 19:02:39 14° W 19:04:51 10° WNW visible
30 Oct ? 05:12:34 10° ENE 05:13:59 11° E 05:15:26 10° ESE visible
30 Oct ? 06:46:16 10° N 06:50:53 75° WNW 06:55:32 10° SSW visible
31 Oct ? 05:32:34 10° NE 05:35:53 19° E 05:39:12 10° SE visible
31 Oct ? 18:05:03 10° S 18:09:09 51° W 18:13:24 10° NNW visible
